Terminal Aerodrome Forecast
Issued by NWS

Home | Current Version | Previous Version | Text Only | Print | Product List | Glossary On
Versions: 1 2 3 4 5 6 7 8 9 10 11 12 13 14 15 16 17 18 19 20 21 22
940
FTPA31 PHFO 291822 AAA
TAFHNY
TAF AMD
PHNY 291822Z 2918/3018 26005KT P6SM BKN012
     FM300600 02005KT P6SM SCT025
     FM301100 VRB03KT P6SM SCT015=

USA.gov is the U.S. government's official web portal to all federal, state and local government web resources and services.